• MPC Preparation (Info)

  • MPEC 2023-V110 : 2023 VG3

    The following Minor Planet Electronic Circular may be linked-to from your own Web pages, but must not otherwise be redistributed electronically.

    A form allowing access to any MPEC is at the bottom of this page.


    Read MPEC 2023-V109 Read MPEC 2023-V111


    M.P.E.C. 2023-V110                             Issued 2023 November 8, 06:26 UT
    
         The Minor Planet Electronic Circulars contain information on unusual
             minor planets, routine data on comets and natural satellites,
             and occasional editorial announcements.  They are published
        on behalf of Division F of the International Astronomical Union by the
              Minor Planet Center, Smithsonian Astrophysical Observatory,
                              Cambridge, MA 02138, U.S.A.
    			  
                 Prepared using the Tamkin Foundation Computer Network
    
                                  MPC@CFA.HARVARD.EDU
                URL https://www.minorplanetcenter.net/    ISSN 1523-6714
    
                                    2023 VG3                                 
    
    
    Observations:
         K23V03G* C2023 11 05.49294404 28 22.243-05 31 18.11         21.44wXEV110F51
         K23V03G  C2023 11 05.50555804 28 21.818-05 31 13.49         21.66wXEV110F51
         K23V03G  C2023 11 05.51815004 28 21.383-05 31 09.12         21.39wXEV110F51
         K23V03G  C2023 11 05.59142004 28 18.956-05 30 42.42         21.46GVEV110F51
         K23V03G  C2023 11 05.59206204 28 18.925-05 30 42.43         21.40GVEV110F51
         K23V03G KC2023 11 06.42498904 27 59.850-05 25 28.85         21.30GVEV110I52
         K23V03G KC2023 11 06.44704204 27 59.044-05 25 20.17         21.47GVEV110I52
         K23V03G KC2023 11 06.47608104 27 57.942-05 25 07.36         21.45GVEV110I52
         K23V03G 3C2023 11 07.13317104 27 42.49 -05 19 47.1          20.5 GVEV110W86
         K23V03G 3C2023 11 07.13637104 27 42.41 -05 19 45.9          20.8 GVEV110W86
         K23V03G 3C2023 11 07.13952904 27 42.29 -05 19 44.5          20.6 GVEV110W86
         K23V03G 3C2023 11 07.14275204 27 42.15 -05 19 42.9          20.9 GVEV110W86
         K23V03G KC2023 11 07.42983504 27 31.597-05 18 03.71         21.49GVEV110I52
         K23V03G KC2023 11 07.43657304 27 31.338-05 18 00.00         21.52GVEV110I52
         K23V03G KC2023 11 07.45197904 27 30.701-05 17 53.05         21.53GVEV110I52
         K23V03G KC2023 11 07.46655904 27 30.100-05 17 45.78         21.18GVEV110I52
    
    Observer details:
    F51 Pan-STARRS 1, Haleakala.  Observers J. Bulger, T. Lowe, P. Minguez, A.
        Schultz, I. Smith.  Measurers K. Chambers, T. de Boer, J. Fairlamb, H.
        Gao, M. Huber, C.-C. Lin, E. Magnier, Y. Ramanjooloo, R. Wainscoat, R.
        Weryk.  1.8-m Ritchey-Chretien + CCD.
    I52 Steward Observatory, Mt. Lemmon Station.  Observers R. A. Kowalski, H.
        Groeller.  Measurers E. C. Beshore, D. Fay, J. B. Fazekas, D. C. Fuls, A.
        R. Gibbs, A. D. Grauer, H. Groeller, J. K. Hogan, R. A. Kowalski, S. M.
        Larson, G. J. Leonard, D. Rankin, R. L. Seaman, F. C. Shelly, K. W.
        Wierzchos.  1.0-m prime focus + CCD.
    W86 Cerro Tololo-LCO B.  Observer J. D. Armstrong.  1.0-m f/8 modified
        Ritchey-Chretien + CCD.
    
    Orbital elements:
    2023 VG3                                                 Earth MOID = 0.0426 AU
    Epoch 2023 Sept. 13.0 TT = JDT 2460200.5                MPC                     
    M 281.01507              (2000.0)            P               Q                  
    n   0.57746540     Peri.   73.42272     -0.74966114     -0.61223817             
    a   1.4281881      Node    68.10502     +0.45526699     -0.75269692             
    e   0.4157535      Incl.   15.71667     +0.48035418     -0.24209868             
    P   1.71           H   22.75          G   0.15           U   9                  
    Residuals in seconds of arc
    231105 F51  0.0   0.1-    231106 I52  0.4+  0.4-    231107 I52  0.1-  0.1-
    231105 F51  0.0   0.1+    231106 I52  0.7-  0.2+    231107 I52  0.2+  0.4+
    231105 F51  0.1-  0.0     231107 W86  0.4-  0.2+    231107 I52  0.2+  0.2-
    231105 F51  0.1-  0.2+    231107 W86  0.2+  0.1-    231107 I52  0.0   0.0
    231105 F51  0.2-  0.1-    231107 W86  0.2+  0.1-
    231106 I52  0.5+  0.1+    231107 W86  0.1-  0.1+
    
    Ephemeris:
    2023 VG3                 a,e,i = 1.43, 0.42, 16                  q = 0.8344
    Date    TT    R. A. (2000) Decl.     Delta      r    Elong.  Phase     V
    2023 10 09    04 18 31.7 -05 01 44   0.5475  1.4051   128.2    34.0    23.6
    ...
    2023 10 24    04 27 57.0 -05 49 21   0.3929  1.3115   137.4    30.9    22.6
    ...
    2023 11 01    04 29 14.8 -05 48 40   0.3172  1.2599   142.7    28.5    22.0
    ...
    2023 11 07    04 27 45.0 -05 21 03   0.2635  1.2207   147.0    26.3    21.5
    2023 11 08    04 27 14.2 -05 12 59   0.2549  1.2141   147.7    25.8    21.4
    2023 11 09    04 26 38.1 -05 03 40   0.2462  1.2075   148.5    25.4    21.3
    ...
    2023 11 15    04 20 48.6 -03 33 11   0.1963  1.1681   153.3    22.4    20.6
    ...
    2023 11 23    04 03 57.1 +01 10 56   0.1346  1.1156   160.8    16.9    19.5
    ...
    2023 12 08    01 13 40.4 +41 29 08   0.05351 1.0205   130.2    47.5    18.2
    
    A. U. Tomatic                (C) Copyright 2023 MPC           M.P.E.C. 2023-V110
    


    Read MPEC 2023-V109 Read MPEC 2023-V111


    MPEC number:

    Enter an MPEC number in one of the following forms:

    • 1997-B01 (the full form)
    • J97B01 (the packed version of the full form)
    • B01 (the abbreviated form)